Home > Weather > London > Past weeks

Flag for United Kingdom Past Weather in London, England, United Kingdom — Yesterday and Last 2 Weeks

Now
66 °F

Sprinkles. Partly sunny.


Feels Like: 66 °F
Forecast: 59 / 72 °F
Wind: 12 mph from Southwest

Location: Northolt

Current Time: Aug 28, 2016 at 11:45:33 AM

Latest Report: Aug 28, 2016 at 10:50 AM


Visibility: N/A

Pressure: 29.89 "Hg

Humidity: 83%

Dew Point: 61 °F

Location of LondonLocation

Past Weather in London — Graph

°F

London Temperature Yesterday

Maximum temperature yesterday: 79 °F (at 2:50 PM)
Minimum temperature yesterday: 57 °F (at 12:50 AM)
Average temperature yesterday: 69 °F

High & Low Weather Summary for the Past Weeks

 TemperatureHumidityPressure
High90 °F (Aug 24, 3:50 PM)100% (Aug 16, 5:50 AM)30.30 "Hg (Aug 16, 5:50 AM)
Low50 °F (Aug 15, 4:50 AM)28% (Aug 26, 3:50 PM)29.65 "Hg (Aug 19, 4:50 PM)
Average67 °F70%30.02 "Hg
* Reported Aug 13 10:50 AM — Aug 28 10:50 AM, London, Weather by CustomWeather, © 2016

Note: Actual official high and low records may vary slightly from our data, if they occured in-between our weather recording intervals... More about our weather records

Advertising

London Weather History for the Previous 24 Hours

Scroll right to see more
 ConditionsComfort  
Time TempWeatherWind HumidityBarometerVisibility
10:50 AM
Sun, Aug 28
66 °FSprinkles. Partly sunny.12 mph83%29.89 "HgN/A
9:50 AM66 °FPartly sunny.9 mph78%29.89 "HgN/A
8:50 AM66 °FPartly sunny.8 mph78%29.89 "HgN/A
7:50 AM64 °FPartly sunny.6 mph83%29.89 "HgN/A
6:50 AM63 °FPartly cloudy.6 mph88%29.89 "HgN/A
5:50 AM61 °FPassing clouds.8 mph88%29.86 "HgN/A
4:50 AM63 °FPassing clouds.10 mph83%29.86 "HgN/A
3:50 AM64 °FPassing clouds.13 mph83%29.86 "HgN/A
2:50 AM66 °FPassing clouds.6 mph88%29.86 "Hg6 mi
1:50 AM68 °FPassing clouds.7 mph88%29.86 "Hg5 mi
12:50 AM68 °FPassing clouds.5 mph88%29.86 "Hg4 mi
11:50 PM
Sat, Aug 27
68 °FPassing clouds.2 mph88%29.86 "Hg3 mi
10:50 PM70 °FPassing clouds.2 mph88%29.89 "Hg5 mi
9:50 PM70 °FPassing clouds.6 mph83%29.89 "HgN/A
8:50 PM72 °FPassing clouds.3 mph73%29.89 "HgN/A
7:50 PM73 °FPartly sunny.5 mph69%29.89 "HgN/A
6:50 PM75 °FPartly sunny.6 mph65%29.89 "HgN/A
5:50 PM75 °FBroken clouds.8 mph61%29.89 "HgN/A
4:50 PM75 °FBroken clouds.10 mph61%29.92 "HgN/A
3:50 PM77 °FMore clouds than sun.15 mph57%29.92 "HgN/A
2:50 PM79 °FSunny.14 mph54%29.92 "Hg10 mi
1:50 PM77 °FSunny.15 mph57%29.95 "Hg10 mi
12:50 PM77 °FPartly sunny.15 mph54%29.98 "HgN/A
11:50 AM73 °FBroken clouds.12 mph61%30.01 "HgN/A
Weather by CustomWeather, © 2016

See weather overviewHow to use our weather pages